This demonstration page uses our WeatherBlox Daily Observations layout. Learn more.

Hourly Observations for July 31, 2017

Temp ( °F °C ) Dew Point ( °F °C ) Humidity (%) Winds ( mph kmh ) Pressure ( in mb ) Visibility ( mi km ) Precip ( " mm )
12:15 am 00:15 Clear 64 18 63 17 94 94 WNW 3 6 30.12 1020 10 16.09344 0 0
12:35 am 00:35 Clear 64 18 63 17 94 94 Calm 30.12 1020 10 16.09344 0 0
12:55 am 00:55 Clear 63 17 63 17 100 100 Calm 30.12 1020 10 16.09344 0 0
1:15 am 01:15 Clear 64 18 61 16 88 88 Calm 30.12 1020 10 16.09344 0 0
1:35 am 01:35 Clear 63 17 61 16 94 94 Calm 30.12 1020 10 16.09344 0 0
1:55 am 01:55 Clear 63 17 61 16 94 94 Calm 30.12 1020 10 16.09344 0 0
2:15 am 02:15 Clear 63 17 63 17 100 100 WSW 3 6 30.12 1020 10 16.09344 0 0
2:35 am 02:35 Clear 61 16 61 16 100 100 W 3 6 30.12 1020 10 16.09344 0 0
2:55 am 02:55 Clear 61 16 61 16 100 100 Calm 30.12 1020 10 16.09344 0 0
3:15 am 03:15 Clear 61 16 61 16 100 100 WNW 3 6 30.12 1020 10 16.09344 0 0
3:35 am 03:35 Clear 61 16 61 16 100 100 Calm 30.09 1019 10 16.09344 0 0
3:55 am 03:55 Clear 63 17 61 16 94 94 Calm 30.09 1019 10 16.09344 0 0
4:15 am 04:15 Clear 61 16 61 16 100 100 Calm 30.09 1019 10 16.09344 0 0
4:35 am 04:35 Clear 61 16 61 16 100 100 Calm 30.09 1019 10 16.09344 0 0
4:55 am 04:55 Clear 61 16 61 16 100 100 WNW 3 6 30.09 1019 10 16.09344 0 0
5:15 am 05:15 Clear 61 16 61 16 100 100 Calm 30.12 1020 10 16.09344 0 0
5:35 am 05:35 Partly Cloudy 61 16 61 16 100 100 Calm 30.12 1020 10 16.09344 0 0
5:55 am 05:55 Partly Cloudy 61 16 61 16 100 100 Calm 30.12 1020 10 16.09344 0 0
6:15 am 06:15 Partly Cloudy 61 16 61 16 100 100 Calm 30.12 1020 10 16.09344 0 0
6:35 am 06:35 Sunny 61 16 61 16 100 100 Calm 30.12 1020 10 16.09344 0 0
6:55 am 06:55 Sunny 63 17 61 16 94 94 Calm 30.12 1020 10 16.09344 0 0
7:15 am 07:15 Sunny 63 17 63 17 100 100 Calm 30.12 1020 10 16.09344 0 0
7:35 am 07:35 Sunny 64 18 63 17 94 94 Calm 30.12 1020 10 16.09344 0 0
7:55 am 07:55 Sunny 68 20 63 17 83 83 Calm 30.12 1020 10 16.09344 0 0
8:15 am 08:15 Sunny 70 21 64 18 83 83 Calm 30.12 1020 10 16.09344 0 0
8:35 am 08:35 Sunny 70 21 64 18 83 83 Calm 30.15 1021 10 16.09344 0 0
8:55 am 08:55 Sunny 72 22 64 18 78 78 Calm 30.15 1021 10 16.09344 0 0
9:15 am 09:15 Sunny 75 24 64 18 69 69 Calm 30.15 1021 10 16.09344 0 0
9:35 am 09:35 Sunny 77 25 63 17 61 61 NNW 5 7 30.15 1021 10 16.09344 0 0
9:55 am 09:55 Sunny 77 25 64 18 65 65 NNW 7 11 30.15 1021 10 16.09344 0 0
10:15 am 10:15 Sunny 79 26 64 18 61 61 NNW 5 7 30.15 1021 10 16.09344 0 0
10:35 am 10:35 Sunny 79 26 64 18 61 61 NNW 3 6 30.15 1021 10 16.09344 0 0
10:55 am 10:55 Sunny 81 27 64 18 58 58 NNW 6 9 30.15 1021 10 16.09344 0 0
11:15 am 11:15 Sunny 82 28 68 20 62 62 WNW 6 9 30.15 1021 10 16.09344 0 0
11:35 am 11:35 Sunny 82 28 64 18 55 55 N 5 7 30.15 1021 10 16.09344 0 0
11:55 am 11:55 Sunny 82 28 64 18 55 55 N 8 13 30.15 1021 10 16.09344 0 0
12:15 pm 12:15 Sunny 84 29 64 18 51 51 NNE 7 11 30.15 1021 10 16.09344 0 0
12:35 pm 12:35 Partly Cloudy 84 29 64 18 51 51 N 6 9 30.15 1021 10 16.09344 0 0
12:55 pm 12:55 Partly Cloudy 86 30 64 18 49 49 NNW 7 11 30.12 1020 N/A 0 0
1:15 pm 13:15 Sunny 86 30 64 18 49 49 N 8 13 30.12 1020 N/A 0 0
1:35 pm 13:35 Partly Cloudy 86 30 64 18 49 49 NNE 7 11 30.12 1020 N/A 0 0
1:55 pm 13:55 Sunny 86 30 64 18 49 49 N 9 15 30.12 1020 10 16.09344 0 0
2:15 pm 14:15 Partly Cloudy 86 30 64 18 49 49 NNE 3 6 30.12 1020 10 16.09344 0 0
2:35 pm 14:35 Partly Cloudy 86 30 63 17 46 46 E 5 7 30.09 1019 10 16.09344 0 0
2:55 pm 14:55 Partly Cloudy 86 30 64 18 49 49 NNW 5 7 30.09 1019 10 16.09344 0 0
3:15 pm 15:15 Partly Cloudy 86 30 64 18 49 49 N 7 11 30.09 1019 10 16.09344 0 0
3:35 pm 15:35 Partly Cloudy 88 31 63 17 43 43 NE 3 6 30.09 1019 10 16.09344 0 0
3:55 pm 15:55 Partly Cloudy 88 31 64 18 46 46 Calm 30.09 1019 10 16.09344 0 0
4:15 pm 16:15 Partly Cloudy 86 30 64 18 49 49 NE 3 6 30.09 1019 10 16.09344 0 0
4:35 pm 16:35 Mostly Cloudy 88 31 64 18 46 46 NNE 3 6 30.09 1019 10 16.09344 0 0
4:55 pm 16:55 Partly Cloudy 86 30 64 18 49 49 N 5 7 30.09 1019 10 16.09344 0 0
5:15 pm 17:15 Partly Cloudy 88 31 64 18 46 46 NNE 5 7 30.09 1019 10 16.09344 0 0
5:35 pm 17:35 Partly Cloudy 86 30 64 18 49 49 NNE 5 7 30.09 1019 10 16.09344 0 0
5:55 pm 17:55 Partly Cloudy 86 30 64 18 49 49 NNE 3 6 30.06 1018 10 16.09344 0 0
6:15 pm 18:15 Partly Cloudy 86 30 63 17 46 46 NNW 6 9 30.06 1018 10 16.09344 0 0
6:35 pm 18:35 Sunny 86 30 63 17 46 46 NNE 3 6 30.06 1018 10 16.09344 0 0
6:55 pm 18:55 Partly Cloudy 86 30 63 17 46 46 N 3 6 30.06 1018 10 16.09344 0 0
7:15 pm 19:15 Sunny 86 30 63 17 46 46 N 5 7 30.09 1019 10 16.09344 0 0
7:35 pm 19:35 Sunny 84 29 64 18 51 51 NNW 3 6 30.09 1019 10 16.09344 0 0
7:55 pm 19:55 Sunny 84 29 64 18 51 51 NNW 3 6 30.09 1019 10 16.09344 0 0
8:15 pm 20:15 Sunny 82 28 66 19 58 58 Calm 30.09 1019 10 16.09344 0 0
8:35 pm 20:35 Clear 81 27 68 20 66 66 Calm 30.09 1019 10 16.09344 0 0
8:55 pm 20:55 Clear 77 25 68 20 74 74 Calm 30.09 1019 10 16.09344 0 0
9:15 pm 21:15 Clear 75 24 68 20 78 78 Calm 30.09 1019 10 16.09344 0 0
9:35 pm 21:35 Clear 73 23 70 21 89 89 Calm 30.09 1019 10 16.09344 0 0
9:55 pm 21:55 Clear 73 23 68 20 83 83 Calm 30.09 1019 10 16.09344 0 0
10:15 pm 22:15 Clear 73 23 70 21 89 89 Calm 30.09 1019 10 16.09344 0 0
10:35 pm 22:35 Clear 72 22 70 21 94 94 Calm 30.09 1019 10 16.09344 0 0
10:55 pm 22:55 Clear 72 22 68 20 88 88 Calm 30.09 1019 10 16.09344 0 0
11:15 pm 23:15 Clear 72 22 68 20 88 88 W 3 6 30.09 1019 10 16.09344 0 0
11:35 pm 23:35 Clear 72 22 68 20 88 88 WSW 3 6 30.09 1019 10 16.09344 0 0
11:55 pm 23:55 Clear 72 22 70 21 94 94 Calm 30.09 1019 10 16.09344 0 0

Powered by AerisWeather